Weather History for Grove, OK

Change the Weather History Date:

Tuesday, March 5, 2013

  Actual Average (KSLG) Record (KSLG)
Temperature  
Mean Temperature 40 °F -  
Max Temperature 46 °F 50 °F 73 °F (2009)
Min Temperature 33 °F 31 °F 23 °F (2003)
Degree Days  
Heating Degree Days 26    
Moisture  
Dew Point 27 °F    
Average Humidity 63    
Maximum Humidity 100    
Minimum Humidity 40    
Precipitation  
Precipitation 0.00 in - - ()
Sea Level Pressure  
Sea Level Pressure 30.22 in    
Wind  
Wind Speed 14 mph (NW)    
Max Wind Speed 21 mph    
Max Gust Speed 29 mph    
Visibility 9 miles    
Events Rain    
Averages and records for this station are not official NWS values.
T = Trace of Precipitation, MM = Missing Value Source: NWS Daily Summary

Daily Weather History Graph

Daily Weather History Graph

Search for Another Location

Airport:

Trip Planner

Search our weather history database for the weather conditions in past years. The results will help you decide how hot, cold, wet, or windy it might be!

Date:

Astronomy

Mar. 05, 2013 Rise Set
Actual Time 6:43 AM CST 6:17 PM CST
Civil Twilight 6:17 AM CST 6:43 PM CST
Nautical Twilight 5:48 AM CST 7:13 PM CST
Astronomical Twilight 5:18 AM CST 7:43 PM CST
Moon 1:49 AM CST (3/5) 12:04 PM CST (3/5)
Length of Visible Light 12h 25m
Length of Day
11h 33m
Last Quarter, 40% of the Moon is Illuminated
Mar 5
Last Quarter
Mar 11
New
Mar 19
First Quarter
Mar 27
Full
Apr 2
Last Quarter

Hourly Weather History & Observations

Time (CST) Temp. Windchill Dew Point Humidity Pressure Visibility Wind Dir Wind Speed Gust Speed Precip Events Conditions
12:15 AM 42.8 °F 35.1 °F 33.8 °F 70% 29.94 in 10.0 mi NNW 16.1 mph 23.0 mph N/A   Scattered Clouds
12:35 AM 44.6 °F 38.1 °F 33.8 °F 66% 29.97 in 10.0 mi NNW 13.8 mph - N/A   Mostly Cloudy
12:55 AM 42.8 °F 34.8 °F 35.6 °F 76% 29.99 in 10.0 mi NNW 17.3 mph 20.7 mph N/A   Overcast
1:15 AM 42.8 °F 36.6 °F 35.6 °F 76% 29.99 in 10.0 mi NNW 11.5 mph - N/A   Overcast
1:55 AM 42.8 °F 36.2 °F 33.8 °F 70% 30.03 in 10.0 mi NW 12.7 mph 23.0 mph N/A   Overcast
2:15 AM 41.0 °F 34.7 °F 35.6 °F 81% 30.05 in 7.0 mi NW 10.4 mph 19.6 mph N/A Rain Rain
2:35 AM 41.0 °F 32.5 °F 35.6 °F 81% 30.05 in 5.0 mi NNW 17.3 mph 24.2 mph N/A Rain Rain
2:55 AM 39.2 °F 31.2 °F 35.6 °F 87% 30.07 in 7.0 mi NNW 13.8 mph 24.2 mph N/A   Drizzle
3:15 AM 37.4 °F 28.9 °F 37.4 °F 100% 30.08 in 5.0 mi NW 13.8 mph 18.4 mph N/A Rain Light Rain
3:35 AM 37.4 °F 32.8 °F 37.4 °F 100% 30.09 in 7.0 mi WNW 5.8 mph - N/A   Drizzle
3:55 AM 37.4 °F 29.8 °F 37.4 °F 100% 30.08 in 5.0 mi NW 11.5 mph 21.9 mph N/A Rain Light Rain
4:15 AM 37.4 °F 30.8 °F 37.4 °F 100% 30.08 in 5.0 mi NW 9.2 mph - N/A Rain Light Rain
4:35 AM 35.6 °F 30.7 °F 35.6 °F 100% 30.09 in 7.0 mi WNW 5.8 mph - N/A   Overcast
4:55 AM 37.4 °F 31.4 °F 37.4 °F 100% 30.11 in 7.0 mi NW 8.1 mph - N/A   Overcast
5:15 AM 37.4 °F 30.8 °F 37.4 °F 100% 30.11 in 7.0 mi NW 9.2 mph - N/A   Overcast
5:35 AM 37.4 °F 29.3 °F 37.4 °F 100% 30.13 in 10.0 mi NW 12.7 mph 20.7 mph N/A   Overcast
5:55 AM 37.4 °F 27.8 °F 37.4 °F 100% 30.14 in 10.0 mi NNW 17.3 mph 23.0 mph N/A   Overcast
6:15 AM 37.4 °F 28.9 °F 37.4 °F 100% 30.14 in 10.0 mi NW 13.8 mph 21.9 mph N/A   Overcast
7:15 AM 37.4 °F 30.3 °F 30.2 °F 75% 30.17 in 10.0 mi NW 10.4 mph - N/A   Mostly Cloudy
7:35 AM 35.6 °F 25.5 °F 28.4 °F 75% 30.18 in 10.0 mi WNW 17.3 mph 23.0 mph N/A   Scattered Clouds
7:55 AM 35.6 °F 24.8 °F 26.6 °F 70% 30.20 in 10.0 mi NW 19.6 mph 27.6 mph N/A   Clear
8:15 AM 35.6 °F 25.2 °F 24.8 °F 65% 30.21 in 10.0 mi NW 18.4 mph 28.8 mph N/A   Clear
8:35 AM 35.6 °F 25.2 °F 23.0 °F 60% 30.23 in 10.0 mi NW 18.4 mph 28.8 mph N/A   Clear
8:55 AM 35.6 °F 25.5 °F 21.2 °F 56% 30.24 in 10.0 mi WNW 17.3 mph 25.3 mph N/A   Clear
9:15 AM 35.6 °F 25.5 °F 21.2 °F 56% 30.25 in 10.0 mi NW 17.3 mph 26.5 mph N/A   Clear
9:35 AM 35.6 °F 25.2 °F 21.2 °F 56% 30.26 in 10.0 mi WNW 18.4 mph 26.5 mph N/A   Clear
9:55 AM 35.6 °F 24.5 °F 19.4 °F 52% 30.26 in 10.0 mi NW 20.7 mph 28.8 mph N/A   Clear
10:15 AM 37.4 °F 28.2 °F 21.2 °F 52% 30.27 in 10.0 mi WNW 16.1 mph 24.2 mph N/A   Clear
10:35 AM 37.4 °F 28.2 °F 19.4 °F 48% 30.28 in 10.0 mi NW 16.1 mph 26.5 mph N/A   Clear
10:55 AM 37.4 °F 28.9 °F 21.2 °F 52% 30.28 in 10.0 mi WNW 13.8 mph 27.6 mph N/A   Clear
11:15 AM 41.0 °F 32.2 °F 21.2 °F 45% 30.28 in 10.0 mi NW 18.4 mph 26.5 mph N/A   Clear
11:35 AM 41.0 °F 32.2 °F 21.2 °F 45% 30.28 in 10.0 mi WNW 18.4 mph 23.0 mph N/A   Clear
11:55 AM 41.0 °F 32.5 °F 21.2 °F 45% 30.28 in 10.0 mi WNW 17.3 mph 27.6 mph N/A   Clear
12:15 PM 41.0 °F 32.8 °F 21.2 °F 45% 30.27 in 10.0 mi WNW 16.1 mph 21.9 mph N/A   Clear
12:35 PM 42.8 °F 36.2 °F 23.0 °F 46% 30.27 in 10.0 mi NW 12.7 mph 16.1 mph N/A   Clear
12:55 PM 42.8 °F 35.8 °F 23.0 °F 46% 30.26 in 10.0 mi WNW 13.8 mph 21.9 mph N/A   Clear
1:15 PM 44.6 °F 38.1 °F 23.0 °F 43% 30.26 in 10.0 mi West 13.8 mph 23.0 mph N/A   Clear
1:35 PM 44.6 °F 36.9 °F 23.0 °F 43% 30.26 in 10.0 mi WNW 18.4 mph 25.3 mph N/A   Clear
1:55 PM 44.6 °F 36.6 °F 23.0 °F 43% 30.26 in 10.0 mi WNW 19.6 mph 26.5 mph N/A   Clear
2:15 PM 46.4 °F 39.0 °F 23.0 °F 40% 30.25 in 10.0 mi NW 19.6 mph 25.3 mph N/A   Clear
2:35 PM 46.4 °F 39.5 °F 23.0 °F 40% 30.25 in 10.0 mi WNW 17.3 mph 27.6 mph N/A   Clear
2:55 PM 46.4 °F 40.1 °F 23.0 °F 40% 30.25 in 10.0 mi WNW 15.0 mph 20.7 mph N/A   Clear
3:15 PM 46.4 °F 39.2 °F 23.0 °F 40% 30.25 in 10.0 mi WNW 18.4 mph 25.3 mph N/A   Clear
3:35 PM 46.4 °F 38.7 °F 23.0 °F 40% 30.25 in 10.0 mi NW 20.7 mph - N/A   Clear
3:55 PM 46.4 °F 39.8 °F 23.0 °F 40% 30.25 in 10.0 mi NW 16.1 mph 27.6 mph N/A   Clear
4:15 PM 46.4 °F 39.2 °F 23.0 °F 40% 30.25 in 10.0 mi NW 18.4 mph 26.5 mph N/A   Clear
4:35 PM 46.4 °F 40.1 °F 23.0 °F 40% 30.25 in 10.0 mi WNW 15.0 mph 23.0 mph N/A   Clear
4:55 PM 46.4 °F 39.5 °F 23.0 °F 40% 30.26 in 10.0 mi WNW 17.3 mph 24.2 mph N/A   Clear
5:15 PM 44.6 °F 38.1 °F 23.0 °F 43% 30.26 in 10.0 mi WNW 13.8 mph 23.0 mph N/A   Clear
5:35 PM 44.6 °F 38.1 °F 23.0 °F 43% 30.26 in 10.0 mi NW 13.8 mph 18.4 mph N/A   Clear
5:55 PM 44.6 °F 38.1 °F 23.0 °F 43% 30.27 in 10.0 mi NW 13.8 mph 19.6 mph N/A   Clear
6:15 PM 42.8 °F 37.5 °F 23.0 °F 46% 30.27 in 10.0 mi NW 9.2 mph 20.7 mph N/A   Clear
6:35 PM 42.8 °F 36.6 °F 23.0 °F 46% 30.28 in 10.0 mi NW 11.5 mph - N/A   Clear
6:55 PM 41.0 °F 35.8 °F 24.8 °F 53% 30.28 in 10.0 mi NW 8.1 mph - N/A   Clear
7:15 PM 41.0 °F 35.8 °F 24.8 °F 53% 30.28 in 10.0 mi NW 8.1 mph - N/A   Clear
7:35 PM 39.2 °F 33.6 °F 26.6 °F 61% 30.29 in 10.0 mi NW 8.1 mph - N/A   Clear
7:55 PM 37.4 °F 32.1 °F 26.6 °F 65% 30.31 in 10.0 mi NNW 6.9 mph - N/A   Clear
8:15 PM 39.2 °F 33.6 °F 26.6 °F 61% 30.32 in 10.0 mi NNW 8.1 mph - N/A   Clear
8:35 PM 37.4 °F 30.8 °F 26.6 °F 65% 30.32 in 10.0 mi NNW 9.2 mph - N/A   Clear
8:55 PM 37.4 °F 28.9 °F 26.6 °F 65% 30.33 in 10.0 mi North 13.8 mph 19.6 mph N/A   Clear
9:15 PM 35.6 °F 28.0 °F 24.8 °F 65% 30.34 in 10.0 mi NNW 10.4 mph 20.7 mph N/A   Clear
9:35 PM 35.6 °F 27.5 °F 24.8 °F 65% 30.35 in 10.0 mi North 11.5 mph 16.1 mph N/A   Clear
9:55 PM 35.6 °F 28.6 °F 24.8 °F 65% 30.35 in 10.0 mi NNW 9.2 mph - N/A   Clear
10:15 PM 35.6 °F 29.2 °F 24.8 °F 65% 30.36 in 10.0 mi NNW 8.1 mph - N/A   Clear
10:35 PM 33.8 °F 26.4 °F 24.8 °F 70% 30.36 in 10.0 mi NNW 9.2 mph - N/A   Clear
10:55 PM 33.8 °F 25.8 °F 23.0 °F 65% 30.36 in 10.0 mi NNW 10.4 mph - N/A   Clear
11:15 PM 33.8 °F 25.8 °F 23.0 °F 65% 30.36 in 10.0 mi NNW 10.4 mph 16.1 mph N/A   Clear
11:35 PM 33.8 °F 27.0 °F 23.0 °F 65% 30.36 in 10.0 mi North 8.1 mph - N/A   Clear
11:55 PM 33.8 °F 26.4 °F 23.0 °F 65% 30.36 in 10.0 mi NNW 9.2 mph - N/A   Clear